| time (UTC) | temp C | wind direction | speed KPH | gust KPH | rain 1hr cm | rain 24hr cm | rain mn cm | humidity % | barometer mb |
| 20260506025011 | 19 | 194 | 0.0 | 3.2 | 0.00 | 0.00 | 0.00 | 85 | 1018.2 |
| 20260506024530 | 19 | 194 | 0.0 | 1.6 | 0.00 | 0.00 | 0.00 | 85 | 1018.1 |
| 20260506024005 | 19 | 194 | 0.0 | 3.2 | 0.00 | 0.00 | 0.00 | 85 | 1018.1 |
| 20260506023506 | 19 | 194 | 1.6 | 3.2 | 0.00 | 0.00 | 0.00 | 85 | 1018.2 |
| 20260506023017 | 19 | 194 | 0.0 | 3.2 | 0.00 | 0.00 | 0.00 | 85 | 1018.1 |
| 20260506022507 | 19 | 194 | 0.0 | 3.2 | 0.00 | 0.00 | 0.00 | 85 | 1018.2 |
| 20260506022009 | 19 | 194 | 0.0 | 3.2 | 0.00 | 0.00 | 0.00 | 85 | 1018.2 |
| 20260506021522 | 19 | 194 | 1.6 | 4.8 | 0.00 | 0.00 | 0.00 | 84 | 1018.1 |
| 20260506021006 | 19 | 178 | 1.6 | 4.8 | 0.00 | 0.00 | 0.00 | 84 | 1018.0 |
| 20260506020502 | 19 | 185 | 1.6 | 4.8 | 0.00 | 0.00 | 0.00 | 84 | 1018.0 |
| 20260506020007 | 20 | 182 | 1.6 | 4.8 | 0.00 | 0.00 | 0.00 | 84 | 1018.0 |
| 20260506015503 | 20 | 188 | 1.6 | 4.8 | 0.00 | 0.00 | 0.00 | 84 | 1017.9 |
| 20260506015004 | 20 | 176 | 1.6 | 4.8 | 0.00 | 0.00 | 0.00 | 84 | 1017.9 |
| 20260506014516 | 20 | 188 | 1.6 | 3.2 | 0.00 | 0.00 | 0.00 | 84 | 1017.9 |
| 20260506014004 | 20 | 184 | 1.6 | 4.8 | 0.00 | 0.00 | 0.00 | 84 | 1017.8 |
| 20260506013504 | 20 | 186 | 1.6 | 4.8 | 0.00 | 0.00 | 0.00 | 84 | 1017.9 |
| 20260506013013 | 20 | 202 | 1.6 | 4.8 | 0.00 | 0.00 | 0.00 | 84 | 1017.9 |
| 20260506012504 | 20 | 178 | 1.6 | 6.4 | 0.00 | 0.00 | 0.00 | 84 | 1017.8 |
| 20260506012006 | 20 | 185 | 1.6 | 6.4 | 0.00 | 0.00 | 0.00 | 83 | 1017.9 |
| 20260506011522 | 20 | 184 | 1.6 | 4.8 | 0.00 | 0.00 | 0.00 | 83 | 1017.8 |
| 20260506011008 | 20 | 181 | 1.6 | 4.8 | 0.00 | 0.00 | 0.00 | 83 | 1017.9 |
| 20260506010507 | 20 | 182 | 1.6 | 4.8 | 0.00 | 0.00 | 0.00 | 83 | 1017.9 |
| 20260506010027 | 20 | 180 | 1.6 | 4.8 | 0.00 | 0.00 | 0.00 | 83 | 1017.9 |
| 20260506005505 | 20 | 177 | 1.6 | 4.8 | 0.00 | 0.00 | 0.00 | 83 | 1017.9 |
| 20260506005008 | 20 | 196 | 1.6 | 6.4 | 0.00 | 0.00 | 0.00 | 82 | 1017.9 |
| 20260506004507 | 20 | 179 | 1.6 | 6.4 | 0.00 | 0.00 | 0.00 | 82 | 1017.9 |
| 20260506004004 | 20 | 213 | 1.6 | 6.4 | 0.00 | 0.00 | 0.00 | 81 | 1017.9 |
| 20260506003504 | 20 | 169 | 1.6 | 4.8 | 0.00 | 0.00 | 0.00 | 81 | 1017.9 |
| 20260506003015 | 20 | 175 | 1.6 | 8.0 | 0.00 | 0.00 | 0.00 | 80 | 1017.9 |
| 20260506002504 | 20 | 190 | 3.2 | 8.0 | 0.00 | 0.00 | 0.00 | 80 | 1017.9 |
| 20260506002007 | 20 | 178 | 1.6 | 6.4 | 0.00 | 0.00 | 0.00 | 80 | 1017.8 |
| 20260506001518 | 20 | 181 | 1.6 | 4.8 | 0.00 | 0.00 | 0.00 | 79 | 1017.7 |
| 20260506001005 | 20 | 176 | 1.6 | 4.8 | 0.00 | 0.00 | 0.00 | 79 | 1017.7 |
| 20260506000505 | 20 | 178 | 1.6 | 6.4 | 0.00 | 0.00 | 0.00 | 78 | 1017.8 |
| 20260506000022 | 20 | 178 | 1.6 | 6.4 | 0.00 | 0.00 | 0.00 | 78 | 1017.8 |
| 20260505235507 | 20 | 184 | 1.6 | 6.4 | 0.00 | 0.00 | 0.00 | 78 | 1017.8 |
| 20260505235007 | 20 | 182 | 1.6 | 6.4 | 0.00 | 0.00 | 0.00 | 79 | 1017.8 |
| 20260505234530 | 20 | 182 | 1.6 | 6.4 | 0.00 | 0.00 | 0.00 | 79 | 1017.8 |
| 20260505234009 | 20 | 169 | 1.6 | 6.4 | 0.00 | 0.00 | 0.00 | 79 | 1017.8 |
| 20260505233509 | 20 | 173 | 1.6 | 6.4 | 0.00 | 0.00 | 0.00 | 79 | 1017.8 |
| 20260505233009 | 21 | 183 | 1.6 | 6.4 | 0.00 | 0.00 | 0.00 | 78 | 1017.9 |
| 20260505232504 | 21 | 159 | 1.6 | 6.4 | 0.00 | 0.00 | 0.00 | 78 | 1017.8 |
| 20260505232005 | 21 | 182 | 1.6 | 9.7 | 0.00 | 0.00 | 0.00 | 77 | 1017.7 |
| 20260505231515 | 21 | 195 | 3.2 | 11.3 | 0.00 | 0.00 | 0.00 | 77 | 1017.9 |
| 20260505231006 | 21 | 177 | 1.6 | 11.3 | 0.00 | 0.00 | 0.00 | 77 | 1017.9 |
| 20260505230505 | 21 | 164 | 3.2 | 8.0 | 0.00 | 0.00 | 0.00 | 76 | 1018.0 |
| 20260505230043 | 21 | 177 | 1.6 | 6.4 | 0.00 | 0.00 | 0.00 | 76 | 1018.0 |
| 20260505225509 | 21 | 177 | 1.6 | 6.4 | 0.00 | 0.00 | 0.00 | 76 | 1018.1 |
| 20260505225009 | 21 | 205 | 3.2 | 6.4 | 0.00 | 0.00 | 0.00 | 75 | 1018.1 |
| 20260505224522 | 21 | 176 | 1.6 | 4.8 | 0.00 | 0.00 | 0.00 | 75 | 1017.9 |
| 20260505224011 | 21 | 172 | 1.6 | 4.8 | 0.00 | 0.00 | 0.00 | 75 | 1017.9 |
| 20260505223512 | 21 | 165 | 1.6 | 4.8 | 0.00 | 0.00 | 0.00 | 75 | 1017.9 |
| 20260505223025 | 21 | 137 | 1.6 | 4.8 | 0.00 | 0.00 | 0.00 | 75 | 1017.8 |
| 20260505222510 | 22 | 179 | 1.6 | 11.3 | 0.00 | 0.00 | 0.00 | 74 | 1017.9 |
| 20260505222013 | 22 | 149 | 1.6 | 11.3 | 0.00 | 0.00 | 0.00 | 74 | 1017.9 |
| 20260505221512 | 22 | 169 | 1.6 | 12.9 | 0.00 | 0.00 | 0.00 | 73 | 1018.0 |
| 20260505221010 | 22 | 150 | 1.6 | 12.9 | 0.00 | 0.00 | 0.00 | 74 | 1018.0 |
| 20260505220506 | 22 | 164 | 1.6 | 8.0 | 0.00 | 0.00 | 0.00 | 75 | 1018.0 |
| 20260505220019 | 22 | 151 | 1.6 | 8.0 | 0.00 | 0.00 | 0.00 | 74 | 1017.9 |
| 20260505215507 | 22 | 187 | 1.6 | 8.0 | 0.00 | 0.00 | 0.00 | 73 | 1017.9 |
| 20260505215007 | 22 | 161 | 1.6 | 8.0 | 0.00 | 0.00 | 0.00 | 72 | 1017.8 |
| 20260505214523 | 22 | 165 | 3.2 | 8.0 | 0.00 | 0.00 | 0.00 | 71 | 1017.8 |
| 20260505214012 | 22 | 186 | 1.6 | 6.4 | 0.00 | 0.00 | 0.00 | 71 | 1017.8 |
| 20260505213510 | 23 | 167 | 1.6 | 8.0 | 0.00 | 0.00 | 0.00 | 71 | 1017.8 |
| 20260505213028 | 23 | 163 | 3.2 | 8.0 | 0.00 | 0.00 | 0.00 | 71 | 1017.8 |
| 20260505212507 | 23 | 160 | 1.6 | 8.0 | 0.00 | 0.00 | 0.00 | 71 | 1017.8 |
| 20260505212011 | 23 | 188 | 4.8 | 8.0 | 0.00 | 0.00 | 0.00 | 71 | 1018.1 |
| 20260505211526 | 23 | 158 | 3.2 | 11.3 | 0.00 | 0.00 | 0.00 | 70 | 1018.2 |
| 20260505211009 | 23 | 188 | 3.2 | 11.3 | 0.00 | 0.00 | 0.00 | 69 | 1018.1 |
| 20260505210513 | 23 | 202 | 3.2 | 9.7 | 0.00 | 0.00 | 0.00 | 69 | 1018.2 |
| 20260505210028 | 23 | 227 | 3.2 | 12.9 | 0.00 | 0.00 | 0.00 | 70 | 1018.3 |
| 20260505205506 | 23 | 187 | 4.8 | 12.9 | 0.00 | 0.00 | 0.00 | 69 | 1018.2 |
| 20260505205009 | 23 | 209 | 3.2 | 12.9 | 0.00 | 0.00 | 0.00 | 69 | 1018.0 |
| 20260505204522 | 23 | 205 | 6.4 | 12.9 | 0.00 | 0.00 | 0.00 | 69 | 1018.0 |
| 20260505204006 | 23 | 166 | 4.8 | 14.5 | 0.00 | 0.00 | 0.00 | 69 | 1018.0 |
| 20260505203507 | 23 | 169 | 3.2 | 14.5 | 0.00 | 0.00 | 0.00 | 69 | 1018.0 |
| 20260505203023 | 23 | 198 | 6.4 | 14.5 | 0.00 | 0.00 | 0.00 | 69 | 1018.0 |
| 20260505202509 | 23 | 187 | 4.8 | 11.3 | 0.00 | 0.00 | 0.00 | 67 | 1017.9 |
| 20260505202012 | 23 | 205 | 1.6 | 11.3 | 0.00 | 0.00 | 0.00 | 68 | 1017.9 |
| 20260505201513 | 23 | 188 | 1.6 | 11.3 | 0.00 | 0.00 | 0.00 | 68 | 1017.8 |
| 20260505201004 | 23 | 213 | 4.8 | 11.3 | 0.00 | 0.00 | 0.00 | 68 | 1017.8 |
| 20260505200506 | 23 | 140 | 1.6 | 11.3 | 0.00 | 0.00 | 0.00 | 67 | 1017.8 |
| 20260505200013 | 23 | 129 | 3.2 | 11.3 | 0.00 | 0.00 | 0.00 | 68 | 1017.9 |
| 20260505195503 | 23 | 213 | 3.2 | 11.3 | 0.00 | 0.00 | 0.00 | 67 | 1018.1 |
| 20260505195005 | 23 | 219 | 4.8 | 12.9 | 0.00 | 0.00 | 0.00 | 66 | 1018.3 |
| 20260505194516 | 23 | 206 | 3.2 | 12.9 | 0.00 | 0.00 | 0.00 | 67 | 1018.4 |
| 20260505194011 | 23 | 195 | 4.8 | 9.7 | 0.00 | 0.00 | 0.00 | 67 | 1018.6 |
| 20260505193506 | 23 | 193 | 3.2 | 9.7 | 0.00 | 0.00 | 0.00 | 67 | 1018.6 |
| 20260505193024 | 23 | 213 | 3.2 | 9.7 | 0.00 | 0.00 | 0.00 | 68 | 1018.6 |
| 20260505192511 | 23 | 211 | 4.8 | 9.7 | 0.00 | 0.00 | 0.00 | 68 | 1018.7 |
| 20260505192003 | 23 | 173 | 3.2 | 9.7 | 0.00 | 0.00 | 0.00 | 68 | 1018.7 |
| 20260505191506 | 23 | 208 | 3.2 | 11.3 | 0.00 | 0.00 | 0.00 | 66 | 1018.6 |
| 20260505191003 | 23 | 169 | 1.6 | 12.9 | 0.00 | 0.00 | 0.00 | 66 | 1018.6 |
| 20260505190503 | 23 | 194 | 3.2 | 12.9 | 0.00 | 0.00 | 0.00 | 67 | 1018.6 |
| 20260505190012 | 24 | 119 | 1.6 | 11.3 | 0.00 | 0.00 | 0.00 | 66 | 1018.6 |
| 20260505185504 | 23 | 192 | 4.8 | 11.3 | 0.00 | 0.00 | 0.00 | 67 | 1018.6 |
| 20260505185005 | 24 | 192 | 1.6 | 12.9 | 0.00 | 0.00 | 0.00 | 68 | 1018.5 |
| 20260505184516 | 23 | 130 | 3.2 | 12.9 | 0.00 | 0.00 | 0.00 | 66 | 1018.4 |
| 20260505184005 | 23 | 162 | 3.2 | 11.3 | 0.00 | 0.00 | 0.00 | 67 | 1018.6 |
| 20260505183507 | 23 | 153 | 4.8 | 11.3 | 0.00 | 0.00 | 0.00 | 70 | 1018.6 |
| 20260505183026 | 23 | 198 | 4.8 | 11.3 | 0.00 | 0.00 | 0.00 | 65 | 1018.7 |
| 20260505182509 | 23 | 208 | 3.2 | 12.9 | 0.00 | 0.00 | 0.00 | 69 | 1018.8 |
| 20260505182012 | 23 | 162 | 4.8 | 12.9 | 0.00 | 0.00 | 0.00 | 68 | 1018.9 |
| 20260505181523 | 23 | 173 | 3.2 | 11.3 | 0.00 | 0.00 | 0.00 | 67 | 1018.9 |
| 20260505181009 | 23 | 213 | 3.2 | 11.3 | 0.00 | 0.00 | 0.00 | 68 | 1019.0 |
| 20260505180504 | 23 | 193 | 4.8 | 11.3 | 0.00 | 0.00 | 0.00 | 68 | 1018.9 |
| 20260505180019 | 23 | 190 | 3.2 | 11.3 | 0.00 | 0.00 | 0.00 | 67 | 1019.0 |
| 20260505175504 | 23 | 98 | 3.2 | 12.9 | 0.00 | 0.00 | 0.00 | 68 | 1019.0 |
| 20260505175003 | 23 | 209 | 6.4 | 12.9 | 0.00 | 0.00 | 0.00 | 66 | 1019.0 |
| 20260505174514 | 23 | 148 | 3.2 | 12.9 | 0.00 | 0.00 | 0.00 | 66 | 1019.0 |
| 20260505174006 | 23 | 140 | 3.2 | 9.7 | 0.00 | 0.00 | 0.00 | 71 | 1019.1 |
| 20260505173503 | 23 | 194 | 3.2 | 9.7 | 0.00 | 0.00 | 0.00 | 68 | 1019.0 |
| 20260505173015 | 23 | 136 | 3.2 | 9.7 | 0.00 | 0.00 | 0.00 | 70 | 1019.0 |
| 20260505172510 | 23 | 175 | 3.2 | 11.3 | 0.00 | 0.00 | 0.00 | 70 | 1019.1 |
| 20260505172014 | 23 | 188 | 3.2 | 11.3 | 0.00 | 0.00 | 0.00 | 72 | 1019.1 |
| 20260505171529 | 22 | 336 | 4.8 | 14.5 | 0.00 | 0.00 | 0.00 | 70 | 1019.1 |
| 20260505171011 | 23 | 246 | 1.6 | 14.5 | 0.00 | 0.00 | 0.00 | 71 | 1019.2 |
| 20260505170509 | 23 | 215 | 4.8 | 11.3 | 0.00 | 0.00 | 0.00 | 67 | 1019.2 |
| 20260505170026 | 23 | 165 | 3.2 | 9.7 | 0.00 | 0.00 | 0.00 | 67 | 1019.2 |
| 20260505165506 | 23 | 198 | 3.2 | 9.7 | 0.00 | 0.00 | 0.00 | 68 | 1019.2 |
| 20260505165014 | 23 | 199 | 3.2 | 11.3 | 0.00 | 0.00 | 0.00 | 68 | 1019.2 |
| 20260505164507 | 23 | 189 | 3.2 | 11.3 | 0.00 | 0.00 | 0.00 | 68 | 1019.3 |
| 20260505164003 | 23 | 245 | 3.2 | 12.9 | 0.00 | 0.00 | 0.00 | 71 | 1019.3 |
| 20260505163509 | 22 | 213 | 4.8 | 12.9 | 0.00 | 0.00 | 0.00 | 72 | 1019.3 |
| 20260505163012 | 23 | 177 | 6.4 | 12.9 | 0.00 | 0.00 | 0.00 | 70 | 1019.4 |
| 20260505162506 | 22 | 283 | 4.8 | 12.9 | 0.00 | 0.00 | 0.00 | 71 | 1019.4 |
| 20260505162007 | 22 | 190 | 3.2 | 11.3 | 0.00 | 0.00 | 0.00 | 70 | 1019.4 |
| 20260505161518 | 22 | 186 | 3.2 | 9.7 | 0.00 | 0.00 | 0.00 | 70 | 1019.4 |
| 20260505161006 | 23 | 186 | 4.8 | 9.7 | 0.00 | 0.00 | 0.00 | 69 | 1019.5 |
| 20260505160507 | 23 | 162 | 3.2 | 9.7 | 0.00 | 0.00 | 0.00 | 68 | 1019.6 |
| 20260505153014 | 22 | 192 | 4.8 | 11.3 | 0.00 | 0.00 | 0.00 | 69 | 1019.5 |
| 20260505152506 | 22 | 211 | 4.8 | 11.3 | 0.00 | 0.00 | 0.00 | 70 | 1019.5 |
| 20260505152008 | 22 | 213 | 3.2 | 12.9 | 0.00 | 0.00 | 0.00 | 71 | 1019.5 |
| 20260505151515 | 22 | 199 | 1.6 | 12.9 | 0.00 | 0.00 | 0.00 | 69 | 1019.5 |
| 20260505151004 | 22 | 183 | 3.2 | 9.7 | 0.00 | 0.00 | 0.00 | 69 | 1019.5 |
| 20260505150507 | 22 | 197 | 3.2 | 12.9 | 0.00 | 0.00 | 0.00 | 71 | 1019.5 |
| 20260505140501 | 22 | 190 | 3.2 | 9.7 | 0.00 | 0.00 | 0.00 | 72 | 1019.2 |
| 20260505125000 | 20 | 188 | 1.6 | 6.4 | 0.00 | 0.00 | 0.00 | 81 | 1019.0 |
| 20260505124506 | 20 | 205 | 1.6 | 8.0 | 0.00 | 0.00 | 0.00 | 82 | 1019.0 |
| 20260505124000 | 20 | 192 | 3.2 | 8.0 | 0.00 | 0.00 | 0.00 | 83 | 1018.9 |
| 20260505123503 | 20 | 192 | 1.6 | 6.4 | 0.00 | 0.00 | 0.00 | 83 | 1018.9 |
| 20260505123022 | 20 | 180 | 1.6 | 6.4 | 0.00 | 0.00 | 0.00 | 84 | 1018.8 |
| 20260505122503 | 20 | 177 | 1.6 | 8.0 | 0.00 | 0.00 | 0.00 | 84 | 1018.7 |
| 20260505122003 | 20 | 173 | 3.2 | 8.0 | 0.00 | 0.00 | 0.00 | 85 | 1018.7 |
| 20260505121507 | 19 | 194 | 3.2 | 8.0 | 0.00 | 0.00 | 0.00 | 87 | 1018.7 |
| 20260505121004 | 19 | 182 | 3.2 | 8.0 | 0.00 | 0.00 | 0.00 | 89 | 1018.8 |
| 20260505120504 | 19 | 192 | 1.6 | 4.8 | 0.00 | 0.00 | 0.00 | 90 | 1018.8 |
| 20260505120019 | 18 | 194 | 1.6 | 4.8 | 0.00 | 0.00 | 0.00 | 92 | 1018.8 |
| 20260505115503 | 18 | 196 | 1.6 | 4.8 | 0.00 | 0.00 | 0.00 | 93 | 1018.7 |
| 20260505115001 | 18 | 185 | 1.6 | 4.8 | 0.00 | 0.00 | 0.00 | 95 | 1018.7 |
| 20260505114503 | 17 | 188 | 0.0 | 1.6 | 0.00 | 0.00 | 0.00 | 95 | 1018.7 |
| 20260505114002 | 16 | 188 | 0.0 | 0.0 | 0.00 | 0.00 | 0.00 | 95 | 1018.6 |
| 20260505113503 | 15 | 188 | 0.0 | 0.0 | 0.00 | 0.00 | 0.00 | 95 | 1018.6 |
| 20260505113005 | 15 | 188 | 0.0 | 0.0 | 0.00 | 0.00 | 0.00 | 95 | 1018.4 |
| 20260505112504 | 15 | 188 | 0.0 | 1.6 | 0.00 | 0.00 | 0.00 | 95 | 1018.3 |
| 20260505112004 | 15 | 188 | 0.0 | 1.6 | 0.00 | 0.00 | 0.00 | 95 | 1018.3 |
| 20260505111516 | 15 | 188 | 0.0 | 1.6 | 0.00 | 0.00 | 0.00 | 95 | 1018.2 |
| 20260505111004 | 14 | 188 | 0.0 | 1.6 | 0.00 | 0.00 | 0.00 | 95 | 1018.1 |
| 20260505110504 | 14 | 188 | 0.0 | 1.6 | 0.00 | 0.00 | 0.00 | 95 | 1018.0 |
| 20260505102006 | 14 | 188 | 0.0 | 1.6 | 0.00 | 0.00 | 0.00 | 94 | 1017.6 |
| 20260505101512 | 14 | 188 | 0.0 | 1.6 | 0.00 | 0.00 | 0.00 | 94 | 1017.5 |
| 20260505101004 | 15 | 188 | 0.0 | 0.0 | 0.00 | 0.00 | 0.00 | 94 | 1017.5 |
| 20260505100504 | 15 | 188 | 0.0 | 1.6 | 0.00 | 0.00 | 0.00 | 94 | 1017.5 |
| 20260505100021 | 15 | 188 | 0.0 | 1.6 | 0.00 | 0.00 | 0.00 | 94 | 1017.4 |
| 20260505095502 | 15 | 188 | 0.0 | 1.6 | 0.00 | 0.00 | 0.00 | 94 | 1017.4 |
| 20260505095004 | 15 | 188 | 0.0 | 1.6 | 0.00 | 0.00 | 0.00 | 94 | 1017.5 |
| 20260505094513 | 15 | 188 | 0.0 | 1.6 | 0.00 | 0.00 | 0.00 | 94 | 1017.3 |
| 20260505094007 | 15 | 188 | 0.0 | 1.6 | 0.00 | 0.00 | 0.00 | 94 | 1017.4 |
| 20260505093504 | 15 | 188 | 0.0 | 1.6 | 0.00 | 0.00 | 0.00 | 94 | 1017.3 |
| 20260505093023 | 15 | 188 | 0.0 | 1.6 | 0.00 | 0.00 | 0.00 | 93 | 1017.3 |
| 20260505092505 | 15 | 188 | 0.0 | 1.6 | 0.00 | 0.00 | 0.00 | 93 | 1017.3 |
| 20260505092008 | 15 | 188 | 0.0 | 0.0 | 0.00 | 0.00 | 0.00 | 93 | 1017.2 |
| 20260505091502 | 15 | 188 | 0.0 | 0.0 | 0.00 | 0.00 | 0.00 | 93 | 1017.1 |
| 20260505091003 | 15 | 188 | 0.0 | 0.0 | 0.00 | 0.00 | 0.00 | 93 | 1017.1 |
| 20260505090502 | 15 | 188 | 0.0 | 0.0 | 0.00 | 0.00 | 0.00 | 92 | 1017.1 |
| 20260505090006 | 15 | 188 | 0.0 | 1.6 | 0.00 | 0.00 | 0.00 | 93 | 1017.0 |
| 20260505085502 | 15 | 188 | 0.0 | 1.6 | 0.00 | 0.00 | 0.00 | 92 | 1017.0 |
| 20260505085003 | 15 | 188 | 0.0 | 0.0 | 0.00 | 0.00 | 0.00 | 92 | 1016.9 |
| 20260505084512 | 15 | 188 | 0.0 | 0.0 | 0.00 | 0.00 | 0.00 | 91 | 1017.0 |
| 20260505084005 | 16 | 188 | 0.0 | 0.0 | 0.00 | 0.00 | 0.00 | 91 | 1016.9 |
| 20260505083504 | 16 | 188 | 0.0 | 0.0 | 0.00 | 0.00 | 0.00 | 90 | 1016.8 |
| 20260505083021 | 16 | 188 | 0.0 | 0.0 | 0.00 | 0.00 | 0.00 | 89 | 1016.8 |
| 20260505082505 | 16 | 188 | 0.0 | 0.0 | 0.00 | 0.00 | 0.00 | 88 | 1016.9 |
| 20260505082005 | 16 | 188 | 0.0 | 3.2 | 0.00 | 0.00 | 0.00 | 88 | 1016.9 |
| 20260505081524 | 17 | 188 | 0.0 | 3.2 | 0.00 | 0.00 | 0.00 | 86 | 1016.9 |
| 20260505081008 | 18 | 188 | 0.0 | 3.2 | 0.00 | 0.00 | 0.00 | 86 | 1016.9 |
| 20260505080509 | 18 | 192 | 0.0 | 4.8 | 0.00 | 0.00 | 0.00 | 86 | 1016.8 |
| 20260505080023 | 18 | 190 | 0.0 | 4.8 | 0.00 | 0.00 | 0.00 | 86 | 1016.7 |
| 20260505075501 | 18 | 175 | 0.0 | 3.2 | 0.00 | 0.00 | 0.00 | 86 | 1016.8 |
| 20260505075003 | 18 | 193 | 0.0 | 6.4 | 0.00 | 0.00 | 0.00 | 86 | 1016.7 |
| 20260505074510 | 18 | 177 | 1.6 | 6.4 | 0.00 | 0.00 | 0.00 | 86 | 1016.8 |
| 20260505074002 | 18 | 200 | 0.0 | 4.8 | 0.00 | 0.00 | 0.00 | 85 | 1016.8 |
| 20260505073507 | 18 | 190 | 1.6 | 4.8 | 0.00 | 0.00 | 0.00 | 85 | 1016.8 |
| 20260505073029 | 18 | 177 | 1.6 | 4.8 | 0.00 | 0.00 | 0.00 | 84 | 1016.8 |
| 20260505072507 | 18 | 209 | 1.6 | 6.4 | 0.00 | 0.00 | 0.00 | 84 | 1016.8 |
| 20260505072004 | 18 | 185 | 1.6 | 6.4 | 0.00 | 0.00 | 0.00 | 83 | 1016.9 |
| 20260505071518 | 18 | 203 | 1.6 | 6.4 | 0.00 | 0.00 | 0.00 | 83 | 1016.9 |
| 20260505071005 | 18 | 178 | 3.2 | 6.4 | 0.00 | 0.00 | 0.00 | 83 | 1016.9 |
| 20260505070507 | 18 | 193 | 3.2 | 6.4 | 0.00 | 0.00 | 0.00 | 82 | 1016.9 |
| 20260505070024 | 18 | 186 | 3.2 | 6.4 | 0.00 | 0.00 | 0.00 | 82 | 1016.9 |
| 20260505065507 | 18 | 182 | 3.2 | 6.4 | 0.00 | 0.00 | 0.00 | 83 | 1016.9 |
| 20260505065008 | 18 | 195 | 1.6 | 6.4 | 0.00 | 0.00 | 0.00 | 83 | 1016.9 |
| 20260505064528 | 18 | 179 | 1.6 | 6.4 | 0.00 | 0.00 | 0.00 | 82 | 1016.9 |
| 20260505064001 | 18 | 184 | 0.0 | 4.8 | 0.00 | 0.00 | 0.00 | 81 | 1016.9 |
| 20260505063504 | 18 | 186 | 1.6 | 6.4 | 0.00 | 0.00 | 0.00 | 81 | 1017.0 |
| 20260505063014 | 18 | 188 | 1.6 | 6.4 | 0.00 | 0.00 | 0.00 | 81 | 1017.1 |
| 20260505062505 | 18 | 183 | 1.6 | 6.4 | 0.00 | 0.00 | 0.00 | 81 | 1017.2 |
| 20260505062009 | 18 | 173 | 1.6 | 8.0 | 0.00 | 0.00 | 0.00 | 81 | 1017.2 |
| 20260505061523 | 18 | 196 | 1.6 | 8.0 | 0.00 | 0.00 | 0.00 | 81 | 1017.2 |
| 20260505061005 | 18 | 200 | 1.6 | 8.0 | 0.00 | 0.00 | 0.00 | 81 | 1017.3 |
| 20260505060508 | 18 | 184 | 1.6 | 6.4 | 0.00 | 0.00 | 0.00 | 81 | 1017.4 |
| 20260505060023 | 18 | 184 | 3.2 | 6.4 | 0.00 | 0.00 | 0.00 | 80 | 1017.5 |
| 20260505055509 | 18 | 189 | 1.6 | 8.0 | 0.00 | 0.00 | 0.00 | 80 | 1017.5 |
| 20260505055013 | 18 | 182 | 1.6 | 9.7 | 0.00 | 0.00 | 0.00 | 79 | 1017.5 |
| 20260505054526 | 18 | 188 | 3.2 | 9.7 | 0.00 | 0.00 | 0.00 | 79 | 1017.7 |
| 20260505054014 | 18 | 195 | 3.2 | 6.4 | 0.00 | 0.00 | 0.00 | 79 | 1017.7 |
| 20260505053510 | 18 | 176 | 3.2 | 8.0 | 0.00 | 0.00 | 0.00 | 78 | 1017.8 |
| 20260505053036 | 18 | 179 | 3.2 | 8.0 | 0.00 | 0.00 | 0.00 | 78 | 1017.8 |
| 20260505052510 | 18 | 194 | 3.2 | 8.0 | 0.00 | 0.00 | 0.00 | 78 | 1017.8 |
| 20260505052009 | 18 | 179 | 3.2 | 8.0 | 0.00 | 0.00 | 0.00 | 78 | 1017.9 |
| 20260505051524 | 18 | 187 | 3.2 | 8.0 | 0.00 | 0.00 | 0.00 | 78 | 1017.9 |
| 20260505051006 | 19 | 182 | 1.6 | 8.0 | 0.00 | 0.00 | 0.00 | 78 | 1018.0 |
| 20260505050504 | 19 | 188 | 3.2 | 8.0 | 0.00 | 0.00 | 0.00 | 78 | 1018.0 |
| 20260505041511 | 18 | 194 | 4.8 | 8.0 | 0.00 | 0.00 | 0.00 | 77 | 1018.0 |
| 20260505041005 | 19 | 184 | 3.2 | 8.0 | 0.00 | 0.00 | 0.00 | 76 | 1018.0 |
| 20260505040508 | 19 | 190 | 3.2 | 11.3 | 0.00 | 0.00 | 0.00 | 76 | 1018.0 |
| 20260505040014 | 19 | 167 | 4.8 | 11.3 | 0.00 | 0.00 | 0.00 | 76 | 1018.0 |
| 20260505035508 | 19 | 173 | 3.2 | 9.7 | 0.00 | 0.00 | 0.00 | 76 | 1018.0 |
| 20260505035004 | 19 | 180 | 4.8 | 9.7 | 0.00 | 0.00 | 0.00 | 76 | 1018.0 |
| 20260505034514 | 19 | 188 | 3.2 | 8.0 | 0.00 | 0.00 | 0.00 | 76 | 1017.9 |
| 20260505034006 | 19 | 192 | 4.8 | 9.7 | 0.00 | 0.00 | 0.00 | 76 | 1017.9 |
| 20260505033505 | 19 | 161 | 4.8 | 12.9 | 0.00 | 0.00 | 0.00 | 75 | 1017.9 |
| 20260505033014 | 19 | 182 | 4.8 | 12.9 | 0.00 | 0.00 | 0.00 | 75 | 1017.9 |
| 20260505032505 | 19 | 169 | 3.2 | 9.7 | 0.00 | 0.00 | 0.00 | 76 | 1018.0 |
| 20260505032005 | 19 | 122 | 3.2 | 9.7 | 0.00 | 0.00 | 0.00 | 76 | 1018.0 |
| 20260505031509 | 19 | 169 | 3.2 | 9.7 | 0.00 | 0.00 | 0.00 | 75 | 1018.0 |
| 20260505031006 | 19 | 209 | 4.8 | 9.7 | 0.00 | 0.00 | 0.00 | 74 | 1018.1 |
| 20260505030507 | 19 | 193 | 4.8 | 9.7 | 0.00 | 0.00 | 0.00 | 74 | 1018.0 |
| 20260505030014 | 19 | 197 | 4.8 | 9.7 | 0.00 | 0.00 | 0.00 | 74 | 1018.1 |
| 20260505025507 | 19 | 208 | 4.8 | 9.7 | 0.00 | 0.00 | 0.00 | 73 | 1018.1 |